Temperature
15 16 16 17 20 21 21 21 20 20 20 19 18 19 20 21 21 20 15 15 14 15 15 15 15 15 15 15 15 15 15 15 15 15 14 14 15 15 15 15 15 15 15 15 15 15 15 15 15
15 16 16 18 20 21 20 20 20 20 19 17 17 18 19 19 16 15 14 14 14 14 14 14 15 15 15 15 15 15 15 15 14 14 14 14 14 15 15 15 15 15 15 15 14 14 14 14 14
15 15 16 19 19 20 20 19 19 18 16 17 17 17 18 17 15 14 14 14 14 14 14 14 15 15 15 15 15 15 15 14 14 14 14 14 14 14 14 14 14 14 14 14 14 14 14 14 14
14 15 17 19 19 19 19 19 18 17 16 16 17 17 16 14 14 14 14 14 13 14 14 14 14 14 14 15 15 15 14 14 14 14 14 14 14 14 14 14 14 14 14 14 14 14 14 14 14
14 16 18 18 18 18 18 17 17 18 17 16 16 17 16 14 14 13 13 13 13 13 13 14 14 14 14 14 14 14 14 14 14 14 14 14 14 14 14 14 14 14 14 14 14 14 14 14 14
14 17 18 18 18 18 17 16 16 17 17 16 16 17 16 13 13 13 13 13 13 13 13 13 14 14 14 14 14 14 14 14 14 14 14 14 14 14 14 14 14 14 14 14 14 14 13 14 14
15 16 17 17 17 17 17 15 16 17 17 16 15 16 15 13 13 13 13 13 13 13 13 13 13 14 14 14 14 14 14 14 14 14 14 14 14 14 14 14 14 14 14 14 14 13 13 13 13
13 16 16 16 16 17 16 15 15 16 16 15 14 16 15 13 13 13 12 12 13 13 13 13 13 13 13 13 13 14 14 14 14 14 14 14 14 14 14 14 14 14 13 13 13 13 13 13 13
12 15 16 16 16 16 15 15 14 13 14 13 13 14 13 13 12 12 12 12 12 12 12 13 13 13 13 13 13 13 13 13 13 13 14 13 13 13 13 13 13 13 13 13 13 13 13 13 13
13 15 15 15 15 15 15 14 14 14 14 14 13 13 12 12 12 12 12 12 12 12 12 12 12 13 13 13 13 13 13 13 13 13 13 13 13 13 13 13 13 13 13 13 13 13 13 12 12
13 14 14 13 13 13 13 14 13 14 15 15 14 13 12 12 11 11 11 12 12 12 12 12 12 12 13 13 13 13 13 13 13 13 13 13 13 13 13 13 13 13 13 12 12 12 12 12 12
12 12 12 12 12 12 12 13 13 13 14 13 13 12 12 12 12 11 11 11 12 12 12 12 12 12 12 12 12 12 12 13 13 13 13 13 13 13 13 12 12 12 12 12 12 12 12 12 12
12 12 11 11 11 11 11 12 12 13 13 12 12 12 12 12 12 11 11 11 11 12 12 12 12 12 12 12 12 12 12 12 12 12 12 12 12 12 12 12 12 12 12 12 12 11 11 11 11
11 11 11 11 11 11 12 12 12 13 12 12 12 12 12 12 11 11 11 11 11 11 11 12 12 12 12 12 12 12 12 12 12 12 12 12 12 12 12 12 12 12 12 12 11 11 11 11 11
10 11 12 12 12 12 12 13 13 13 12 12 12 12 11 11 11 11 11 11 11 11 11 11 11 11 12 12 11 11 12 12 12 12 12 12 12 12 12 12 12 12 12 11 11 11 11 11 11
11 12 13 13 12 12 12 14 15 12 12 12 12 11 11 11 11 11 11 11 11 11 11 11 11 11 11 11 11 11 11 11 11 11 11 11 11 11 11 11 11 11 11 11 11 11 10 10 10
12 12 13 13 12 12 12 13 14 12 11 12 12 11 11 11 11 11 11 11 11 11 11 11 11 11 11 11 11 11 11 11 11 11 11 11 11 11 11 11 11 11 11 11 11 10 10 10 10
12 12 12 12 12 12 12 13 13 12 11 12 12 12 11 11 11 11 11 11 11 10 10 10 10 10 10 10 10 10 10 10 11 11 11 11 10 11 11 11 10 10 10 10 10 10 10 10 10
10 11 11 12 12 11 12 13 13 13 12 12 12 12 11 11 11 10 10 10 10 10 10 10 10 10 10 10 10 10 10 10 10 10 10 10 10 10 10 10 10 10 10 10 10 10 10 9 9
10 10 11 12 11 11 12 13 14 13 12 12 12 11 11 11 10 10 10 10 10 10 10 10 10 10 10 10 10 10 10 10 10 10 10 10 10 10 10 10 10 9 9 9 9 9 9 9 9
10 10 11 11 11 11 11 13 14 13 12 12 11 11 11 10 10 10 10 10 10 10 10 10 10 10 10 10 10 10 10 10 10 10 9 9 9 9 9 9 9 9 9 9 9 9 9 9 9
11 10 10 10 11 12 11 12 14 13 13 13 12 11 11 10 10 10 10 10 10 10 10 10 10 10 10 10 10 10 10 10 10 10 9 9 9 9 9 9 9 9 9 9 8 8 8 8 8
10 9 9 10 10 11 11 11 14 13 13 13 13 11 11 10 10 10 10 10 10 10 10 10 10 10 10 10 10 9 9 9 9 9 9 9 9 9 9 8 8 8 8 8 8 8 8 8 8
9 9 9 10 11 11 11 11 13 13 13 13 13 11 11 10 10 10 10 10 10 10 10 10 10 10 10 10 9 9 9 9 9 9 9 9 8 8 8 8 8 8 8 8 8 8 8 7 7
9 11 11 11 11 12 11 11 12 13 12 12 11 11 10 9 9 9 9 9 9 10 10 10 10 10 10 9 9 9 9 9 9 9 9 8 8 8 8 8 8 8 7 7 7 7 7 7 7
10 10 11 11 12 12 11 11 13 12 11 10 10 10 9 9 9 9 9 9 9 10 10 10 9 9 9 9 9 9 9 9 9 8 8 8 8 8 8 8 7 7 7 7 7 7 7 6 6
10 10 10 10 10 10 12 12 13 12 11 10 10 9 9 9 8 8 9 9 9 9 10 9 9 9 9 9 9 9 9 8 8 8 8 8 8 7 7 7 7 7 7 6 6 6 6 6 6
9 9 9 10 10 11 12 12 13 12 11 11 10 9 9 8 8 8 8 8 9 9 9 9 9 9 9 9 9 9 8 8 8 8 8 8 7 7 7 7 7 6 6 6 6 6 6 6 5
9 9 9 10 10 11 12 13 12 11 10 10 10 9 8 8 7 7 8 8 8 8 9 9 9 9 9 8 8 8 8 8 8 7 7 7 7 7 7 6 6 6 6 6 5 5 5 5 5
9 10 10 10 10 10 11 12 11 10 9 9 9 8 8 7 7 7 7 8 8 8 8 8 8 8 8 8 8 8 7 7 7 7 7 7 7 6 6 6 6 6 6 5 5 5 5 5 4
Wind_Speed
9 6 3 2 4 5 9 6 4 3 3 1 2 3 4 4 3 1 4 3 4 6 7 9 9 8 8 9 9 8 8 8 8 9 9 9 9 9 9 9 9 9 9 9 10 10 10 10 10
7 4 2 3 5 8 7 6 6 4 1 1 2 3 4 2 2 2 3 3 4 6 6 7 9 9 9 9 9 9 8 8 9 8 9 8 8 9 9 8 8 9 9 10 10 10 10 10 11
4 2 2 3 5 8 7 4 4 2 1 2 2 2 3 1 1 1 2 4 4 5 6 7 8 9 9 9 9 9 8 8 8 8 8 8 8 9 9 9 9 9 10 10 10 10 10 10 10
2 2 2 4 8 7 5 2 1 2 2 1 2 3 1 1 0 1 2 4 4 4 5 7 8 8 9 9 9 9 9 8 8 8 8 8 8 8 9 9 9 9 10 10 10 10 10 10 10
1 2 4 6 9 7 5 3 3 4 3 2 3 4 2 1 1 1 2 4 4 4 4 7 8 8 8 9 9 8 9 9 8 8 8 8 8 8 9 9 9 10 10 10 10 10 10 10 10
1 3 5 8 9 7 5 4 5 6 4 3 4 4 2 2 1 1 2 3 4 4 4 7 8 8 8 8 8 8 8 9 9 8 7 7 8 8 9 9 10 10 10 10 10 10 11 10 10
2 3 6 8 8 7 5 4 6 7 7 5 3 4 2 2 0 1 2 3 3 4 5 6 8 8 8 8 8 8 8 9 9 8 8 8 8 8 8 9 9 10 10 10 10 10 10 10 10
1 2 6 7 8 7 4 3 4 7 7 2 3 5 3 2 1 1 2 3 3 3 4 5 6 7 8 8 7 7 8 8 9 9 8 8 8 8 8 8 9 9 10 10 10 10 10 10 10
1 3 6 7 7 6 3 4 4 4 5 4 5 6 5 1 2 2 2 3 3 3 4 4 5 6 6 7 8 7 7 8 9 9 9 8 7 7 7 7 8 9 10 10 10 10 10 9 10
2 5 7 4 5 6 5 6 5 4 7 6 6 6 3 3 3 5 5 5 5 5 4 4 5 5 6 6 7 6 5 6 7 7 8 7 6 6 6 8 8 9 10 10 9 9 8 6 6
2 4 4 5 5 6 6 7 6 7 9 9 9 7 4 5 5 6 6 6 6 5 4 4 5 5 6 5 6 5 5 5 5 6 8 7 6 6 6 6 7 7 8 8 8 7 6 5 5
2 4 5 5 5 6 7 6 7 10 10 9 9 7 7 8 8 8 7 7 6 5 5 4 4 5 6 5 5 5 5 4 4 5 7 7 5 5 5 5 5 6 5 6 6 5 6 6 6
5 5 5 8 8 9 9 10 10 11 11 9 7 7 8 9 9 8 7 7 6 6 6 5 5 6 6 5 5 5 5 5 5 5 5 6 5 5 5 5 5 5 5 6 5 5 6 5 5
4 7 8 8 8 6 9 10 8 10 7 6 6 8 8 9 9 8 7 6 7 7 6 6 6 6 6 6 5 4 5 5 5 4 4 5 5 5 5 5 5 5 5 5 5 5 5 4 4
5 6 6 5 5 4 6 9 9 8 6 7 8 8 8 8 7 8 8 7 7 6 5 6 6 6 7 6 6 5 5 5 5 5 4 4 5 6 5 5 5 5 5 6 5 5 4 4 4
3 4 4 3 4 4 5 10 6 4 6 8 8 7 7 7 7 7 7 7 6 5 5 5 5 5 6 6 5 5 5 5 5 5 5 5 5 6 5 5 5 6 6 5 5 4 4 4 4
2 5 6 5 3 4 6 11 8 5 7 9 8 7 7 7 7 6 6 6 6 6 6 5 5 5 5 5 5 5 5 5 5 5 4 5 6 7 5 4 5 6 5 5 4 4 4 4 3
5 6 7 7 4 6 9 12 10 8 7 8 7 7 7 7 7 6 5 5 5 5 5 6 6 5 5 5 4 4 4 4 4 5 5 6 6 7 6 5 5 5 4 4 5 5 4 3 3
6 8 10 8 7 8 11 13 12 8 7 7 7 7 7 7 6 4 5 5 4 4 4 5 6 5 5 5 5 4 4 4 4 4 5 6 6 6 6 5 5 4 4 4 5 5 5 3 3
6 9 9 7 5 7 10 12 9 6 6 7 8 7 7 6 5 4 4 5 5 5 5 5 6 6 6 5 5 3 4 3 3 4 5 5 6 6 5 6 5 5 4 4 4 4 3 3 2
7 8 8 9 10 5 8 7 4 3 4 4 5 6 7 7 6 5 5 5 5 6 6 5 6 6 6 6 4 4 3 3 4 4 4 5 6 6 5 6 5 5 4 4 4 4 4 3 2
6 5 8 9 7 4 4 5 3 4 4 4 4 5 6 6 6 6 6 6 6 7 6 6 7 6 6 7 7 8 6 6 6 5 5 6 6 6 6 6 6 5 5 5 4 4 3 4 3
5 5 7 7 6 5 3 4 5 4 5 6 5 5 5 6 6 6 6 6 6 6 6 6 7 7 7 7 8 8 6 5 5 5 6 6 5 6 6 5 5 5 4 5 5 4 4 3 3
4 4 3 3 3 4 4 4 5 4 6 8 6 5 5 4 5 5 4 3 3 4 4 5 7 7 7 8 8 8 8 7 7 7 7 6 5 5 6 6 5 5 4 5 5 4 5 4 4
3 3 2 2 2 3 1 4 5 5 6 7 7 6 5 4 4 5 5 4 4 4 4 5 7 7 7 8 8 8 8 8 8 8 7 7 5 5 6 6 5 5 5 5 5 5 5 5 4
2 2 2 3 4 4 2 4 3 4 5 6 6 6 6 5 3 4 4 5 5 5 4 5 6 7 8 8 8 7 8 6 6 7 6 6 5 5 6 6 6 6 6 5 5 4 4 4 4
2 2 2 3 3 5 4 4 5 4 5 6 7 7 7 5 4 3 3 4 4 4 4 5 6 7 7 8 8 7 8 7 6 6 6 5 5 5 6 6 6 6 6 6 5 4 5 4 4
1 2 2 2 3 4 5 4 3 4 6 7 8 8 8 7 5 4 2 2 3 3 3 4 6 7 7 7 7 6 7 7 7 6 7 6 6 6 7 7 6 6 6 6 5 4 4 5 4
4 3 3 3 3 4 5 3 0 2 5 7 8 7 7 6 5 4 3 2 1 1 2 4 4 5 6 6 7 7 7 7 7 6 7 7 7 7 7 7 7 7 6 6 6 5 6 5 5
5 5 6 4 4 4 5 4 2 2 4 6 7 8 7 6 4 3 2 2 1 1 2 3 4 5 5 6 6 7 7 7 7 7 7 7 7 7 7 7 7 7 6 7 7 7 6 6 6
Wind_Direction
331 325 294 239 215 219 232 218 213 201 203 251 269 251 252 246 263 352 67 107 131 145 147 150 150 147 141 137 139 141 138 131 125 123 125 127 126 122 118 114 110 107 103 100 97 95 92 90 89
330 316 246 220 227 227 225 219 213 219 327 321 238 241 240 234 9 56 101 117 140 143 147 154 152 152 143 140 136 138 139 136 131 126 125 126 128 126 122 117 111 107 103 100 98 96 93 91 90
318 313 229 205 225 234 226 199 225 233 276 257 245 262 272 271 80 100 92 142 145 145 151 147 153 156 147 145 140 141 139 139 136 131 127 128 128 127 124 119 113 110 106 103 101 97 94 94 93
286 201 201 224 225 231 243 212 225 219 202 255 263 252 230 17 23 83 121 153 153 151 153 149 154 157 153 149 147 145 146 142 140 138 133 132 133 129 123 120 116 114 109 104 103 101 98 96 94
280 210 203 223 234 231 236 261 244 240 227 235 256 263 245 155 67 125 151 167 163 162 160 156 155 151 154 154 154 149 151 148 142 142 141 133 132 130 126 121 120 117 112 107 106 104 101 98 94
189 207 220 230 230 231 236 245 248 254 245 247 253 263 237 133 124 137 180 186 174 168 164 161 159 151 147 156 159 157 154 154 148 145 142 134 128 127 125 121 120 121 116 111 109 106 104 99 96
215 205 228 236 238 235 234 242 248 259 250 246 259 251 221 182 140 213 212 196 185 173 167 167 165 159 152 150 159 160 157 155 151 146 141 133 124 122 124 121 120 120 119 116 111 108 106 101 97
291 208 226 233 241 243 235 242 261 259 263 274 242 251 261 262 285 235 222 197 185 180 173 168 169 168 165 160 152 156 156 151 149 144 137 132 127 121 119 123 123 121 121 118 113 108 107 102 97
247 222 230 232 242 250 243 253 266 273 257 252 251 283 309 263 216 210 209 201 194 195 187 179 171 172 170 164 155 152 151 152 154 151 143 147 148 140 131 118 121 124 121 119 116 112 109 108 100
231 229 236 244 254 270 264 264 270 256 255 255 259 273 268 206 214 217 216 212 208 208 205 191 180 174 173 164 161 163 163 168 174 170 165 160 154 146 137 120 117 121 121 121 118 116 120 127 117
235 242 252 254 269 279 273 270 259 258 261 261 260 258 244 235 231 234 230 219 213 207 210 205 189 180 176 168 169 164 164 168 173 176 173 162 153 151 152 147 142 137 136 133 131 134 127 124 113
248 251 261 272 278 276 275 275 265 252 263 285 270 253 239 231 231 232 237 232 216 211 205 207 198 189 180 176 173 170 164 165 164 174 183 168 152 151 149 144 145 145 142 135 139 136 130 125 119
252 268 272 273 276 273 271 264 269 265 271 283 267 237 233 234 236 236 235 237 222 213 208 203 202 193 181 175 175 175 169 166 161 165 177 172 157 154 151 145 144 143 142 141 137 139 134 127 120
286 280 279 281 272 269 267 269 267 269 274 265 250 241 238 236 237 239 237 236 229 217 211 203 205 193 183 180 176 175 170 158 155 158 169 172 161 157 152 148 146 144 144 143 143 137 135 128 123
282 282 277 266 271 266 274 268 250 267 275 264 257 251 245 242 239 238 235 235 233 222 212 201 202 197 187 180 177 169 168 162 157 154 160 169 164 160 156 153 151 149 150 147 143 137 131 130 129
263 266 276 276 277 264 259 267 265 273 273 268 262 254 249 246 243 242 237 233 230 219 206 201 195 199 190 178 174 169 168 166 157 154 161 164 164 163 156 156 155 152 153 151 147 147 140 140 141
261 282 284 295 278 271 251 270 283 288 274 270 262 255 249 248 246 238 230 224 219 210 198 192 194 192 183 169 170 167 164 167 159 158 164 162 167 164 158 154 154 159 156 157 153 152 152 143 138
296 294 281 284 304 285 267 271 288 293 275 266 260 253 247 245 243 233 223 215 206 197 191 184 187 184 176 163 159 155 159 163 162 161 167 168 167 166 161 151 154 160 161 163 161 149 138 135 131
280 283 283 284 300 293 277 280 287 293 279 266 260 255 252 251 247 226 207 199 187 183 186 182 180 181 179 172 171 170 176 168 167 162 162 167 166 165 166 156 156 162 163 160 160 151 139 127 134
265 284 288 292 309 299 290 286 285 285 274 264 259 255 253 251 242 221 202 192 192 190 190 192 191 188 187 185 181 178 164 166 163 157 165 169 168 166 173 169 164 163 158 153 156 160 153 139 155
262 271 288 301 313 288 298 283 289 312 293 282 267 259 255 246 236 222 206 198 200 199 196 196 199 196 190 179 164 143 135 145 165 172 175 178 177 170 170 168 163 162 165 160 163 172 172 160 154
271 269 280 290 296 286 308 288 298 326 327 322 294 272 262 248 235 228 217 208 205 205 202 199 195 193 188 179 177 173 181 186 189 178 173 170 177 174 167 167 165 165 162 163 168 169 168 170 171
271 294 280 274 268 271 266 269 292 340 321 321 305 290 278 258 244 235 227 221 214 206 198 196 193 190 186 186 186 185 191 187 170 166 165 168 171 173 169 167 165 166 166 166 166 165 165 176 184
272 278 254 236 244 258 256 263 292 322 312 315 312 298 291 273 253 245 233 220 212 208 197 193 191 191 188 189 190 192 190 180 169 171 172 174 171 169 170 169 171 166 166 169 166 163 166 170 175
261 279 287 258 249 266 265 253 270 318 316 312 313 311 313 297 263 251 235 221 213 207 203 199 195 193 191 191 192 195 193 188 185 182 182 176 175 176 175 170 172 170 168 167 163 162 169 175 179
231 271 290 291 285 293 264 252 273 319 318 323 325 324 328 319 292 268 250 236 226 212 205 203 204 199 195 194 194 195 195 195 192 186 182 182 181 179 170 169 171 169 166 165 166 168 172 176 184
199 210 288 282 275 270 266 278 284 316 336 347 348 346 342 335 321 298 270 250 239 223 212 210 207 202 199 197 194 197 194 193 189 183 182 182 178 168 168 170 171 169 169 171 171 177 178 179 188
255 181 191 236 282 277 275 269 285 329 339 347 352 349 343 344 337 321 292 257 243 230 214 209 207 203 198 196 196 196 194 191 188 184 184 181 176 171 171 174 176 173 174 176 177 182 184 185 191
176 188 216 226 263 275 282 269 78 321 332 331 338 343 342 342 337 324 313 292 251 214 195 194 198 199 194 194 194 192 192 189 187 189 188 185 181 178 178 181 181 180 180 182 185 191 188 193 197
225 219 207 235 243 245 271 273 81 332 336 332 331 338 341 342 342 337 330 321 303 251 213 197 195 199 198 192 191 193 191 188 190 192 189 186 185 184 183 183 183 186 187 189 192 195 194 200 205
Height
1523 1524 1525 1527 1526 1521 1519 1519 1520 1521 1522 1524 1524 1524 1521 1520 1521 1525 1525 1523 1524 1525 1527 1527 1529 1530 1531 1532 1533 1534 1534 1535 1535 1536 1536 1536 1537 1537 1537 1537 1537 1537 1537 1537 1537 1537 1538 1538 1538
1523 1524 1526 1526 1520 1519 1518 1518 1520 1521 1524 1525 1525 1524 1523 1522 1523 1523 1522 1522 1524 1525 1526 1527 1528 1530 1531 1532 1532 1533 1534 1535 1535 1536 1536 1536 1537 1537 1537 1537 1537 1537 1537 1538 1538 1538 1538 1538 1538
1523 1524 1526 1522 1519 1516 1516 1519 1520 1523 1525 1525 1524 1524 1523 1523 1523 1523 1522 1522 1524 1525 1526 1527 1528 1529 1530 1531 1532 1533 1534 1535 1535 1536 1536 1536 1537 1537 1537 1537 1537 1537 1538 1538 1538 1538 1538 1538 1539
1524 1526 1526 1522 1519 1518 1518 1519 1522 1523 1524 1525 1524 1523 1523 1523 1522 1522 1521 1522 1523 1524 1525 1526 1527 1528 1529 1530 1531 1532 1533 1534 1535 1535 1536 1536 1536 1537 1537 1537 1537 1538 1538 1538 1538 1538 1539 1539 1539
1523 1524 1522 1520 1519 1519 1521 1523 1524 1522 1522 1524 1524 1522 1522 1522 1520 1520 1521 1522 1523 1524 1525 1525 1526 1527 1528 1529 1530 1531 1532 1533 1534 1535 1535 1536 1536 1537 1537 1537 1537 1538 1538 1538 1539 1539 1539 1539 1539
1525 1522 1519 1517 1516 1519 1522 1524 1524 1522 1521 1523 1523 1522 1521 1520 1520 1520 1520 1521 1522 1523 1523 1524 1525 1526 1527 1528 1529 1530 1531 1532 1533 1534 1535 1536 1536 1536 1537 1537 1538 1538 1538 1539 1539 1539 1539 1540 1540
1525 1521 1518 1516 1517 1518 1521 1523 1522 1521 1520 1521 1522 1521 1519 1520 1519 1519 1519 1520 1521 1522 1522 1523 1524 1525 1526 1527 1528 1529 1530 1531 1532 1533 1534 1535 1536 1536 1537 1537 1538 1538 1538 1539 1539 1540 1540 1540 1540
1524 1523 1519 1518 1518 1518 1521 1522 1522 1521 1520 1521 1522 1520 1518 1519 1517 1517 1518 1519 1520 1520 1521 1521 1522 1524 1525 1526 1527 1528 1529 1530 1531 1532 1533 1534 1535 1536 1536 1537 1538 1538 1539 1539 1539 1540 1540 1540 1541
1525 1523 1518 1518 1518 1518 1521 1521 1521 1520 1520 1519 1519 1519 1518 1516 1515 1516 1516 1517 1517 1518 1519 1520 1521 1522 1523 1524 1525 1526 1528 1529 1530 1531 1532 1533 1534 1535 1536 1536 1537 1538 1538 1539 1539 1540 1540 1541 1541
1525 1520 1518 1520 1520 1519 1520 1520 1520 1519 1517 1517 1517 1516 1515 1515 1514 1514 1514 1514 1515 1515 1516 1517 1518 1519 1521 1522 1523 1525 1526 1527 1529 1530 1531 1532 1533 1534 1535 1536 1537 1538 1538 1539 1539 1540 1540 1541 1541
1524 1521 1521 1522 1522 1521 1520 1519 1519 1517 1514 1514 1513 1513 1513 1513 1512 1512 1512 1512 1513 1514 1514 1515 1516 1517 1518 1519 1521 1522 1524 1525 1527 1528 1529 1531 1532 1533 1534 1535 1536 1537 1538 1538 1539 1540 1540 1541 1541
1525 1523 1523 1522 1522 1521 1519 1518 1516 1514 1512 1512 1511 1511 1510 1510 1509 1509 1510 1510 1511 1511 1512 1512 1514 1515 1516 1517 1519 1520 1522 1523 1525 1526 1528 1529 1530 1531 1533 1534 1535 1536 1537 1538 1538 1539 1540 1541 1541
1524 1523 1522 1521 1520 1519 1518 1516 1514 1511 1510 1509 1508 1508 1507 1507 1507 1508 1508 1508 1508 1508 1509 1510 1511 1512 1513 1515 1516 1518 1519 1521 1522 1524 1525 1527 1528 1530 1531 1532 1534 1535 1536 1537 1538 1539 1539 1540 1540
1524 1523 1521 1519 1518 1517 1516 1513 1512 1506 1507 1506 1505 1505 1504 1504 1504 1504 1504 1504 1505 1506 1507 1507 1508 1509 1511 1512 1514 1516 1517 1519 1521 1522 1523 1524 1526 1528 1529 1531 1532 1533 1534 1536 1537 1538 1538 1539 1540
1524 1522 1517 1516 1515 1514 1514 1508 1506 1504 1504 1503 1502 1502 1501 1501 1501 1501 1501 1502 1503 1503 1504 1504 1506 1507 1508 1510 1512 1514 1515 1517 1519 1520 1522 1523 1525 1526 1528 1529 1531 1532 1533 1534 1535 1537 1537 1538 1539
1522 1518 1513 1512 1513 1513 1514 1503 1501 1502 1501 1500 1499 1499 1499 1499 1499 1499 1499 1500 1500 1501 1501 1502 1503 1504 1506 1508 1509 1511 1513 1514 1516 1518 1520 1522 1523 1525 1526 1528 1529 1530 1532 1533 1534 1535 1536 1537 1538
1518 1515 1512 1511 1511 1511 1510 1501 1499 1500 1499 1497 1496 1496 1496 1496 1496 1496 1497 1497 1497 1498 1499 1500 1501 1502 1503 1505 1507 1509 1511 1512 1514 1516 1518 1519 1521 1523 1525 1526 1528 1529 1530 1531 1533 1534 1535 1536 1537
1518 1515 1512 1510 1510 1510 1506 1499 1497 1497 1496 1495 1494 1494 1494 1493 1494 1494 1494 1494 1495 1496 1496 1497 1498 1500 1501 1503 1505 1507 1509 1510 1512 1514 1516 1518 1519 1521 1523 1524 1526 1527 1529 1530 1531 1532 1533 1534 1535
1521 1519 1514 1510 1510 1510 1502 1497 1493 1494 1493 1492 1491 1491 1491 1491 1492 1492 1492 1492 1492 1493 1494 1495 1495 1497 1498 1500 1502 1504 1506 1508 1510 1512 1514 1516 1517 1519 1521 1523 1524 1526 1527 1528 1529 1530 1531 1532 1533
1521 1518 1512 1509 1509 1508 1501 1494 1490 1491 1490 1489 1488 1488 1489 1489 1489 1489 1489 1490 1490 1490 1491 1492 1493 1495 1496 1498 1500 1502 1504 1506 1508 1510 1512 1514 1516 1517 1519 1520 1522 1524 1525 1526 1527 1528 1529 1530 1531
1517 1516 1513 1511 1508 1505 1502 1490 1486 1487 1488 1487 1487 1487 1487 1487 1487 1487 1487 1487 1488 1488 1489 1490 1491 1493 1494 1496 1498 1500 1502 1504 1506 1508 1510 1512 1514 1515 1517 1517 1519 1521 1523 1524 1525 1527 1527 1528 1529
1514 1515 1515 1513 1509 1502 1504 1494 1483 1484 1484 1484 1484 1484 1484 1484 1485 1485 1485 1485 1486 1487 1488 1488 1489 1491 1492 1493 1495 1497 1499 1501 1503 1505 1508 1510 1511 1512 1514 1515 1517 1518 1519 1521 1523 1524 1525 1526 1527
1514 1515 1514 1512 1508 1504 1501 1499 1484 1484 1483 1481 1482 1482 1482 1482 1482 1482 1482 1483 1483 1484 1485 1485 1487 1488 1489 1491 1493 1495 1498 1499 1501 1503 1505 1507 1508 1510 1511 1513 1514 1516 1517 1518 1520 1521 1522 1523 1525
1516 1515 1512 1510 1506 1502 1499 1498 1486 1482 1482 1481 1480 1480 1480 1480 1479 1479 1480 1480 1481 1481 1481 1483 1484 1485 1487 1489 1490 1493 1495 1497 1499 1500 1502 1504 1505 1507 1508 1510 1512 1513 1514 1515 1517 1518 1519 1521 1522
1515 1509 1505 1503 1501 1494 1499 1497 1487 1482 1483 1482 1481 1479 1478 1478 1477 1477 1477 1477 1477 1478 1479 1480 1481 1483 1484 1486 1488 1490 1492 1495 1496 1498 1500 1502 1503 1504 1506 1507 1509 1511 1512 1513 1514 1515 1517 1518 1519
1513 1510 1509 1505 1498 1492 1497 1492 1482 1484 1484 1482 1481 1479 1477 1476 1475 1475 1475 1475 1475 1475 1476 1477 1479 1480 1482 1484 1486 1488 1490 1492 1494 1496 1498 1499 1501 1502 1504 1505 1507 1508 1509 1510 1511 1512 1513 1515 1516
1511 1511 1512 1509 1506 1502 1488 1485 1481 1481 1481 1481 1479 1478 1476 1475 1474 1473 1473 1473 1473 1473 1474 1475 1477 1478 1480 1481 1483 1486 1488 1489 1491 1493 1495 1497 1498 1499 1501 1502 1504 1505 1506 1507 1508 1509 1510 1511 1512
1513 1511 1511 1509 1504 1495 1486 1484 1480 1479 1480 1480 1479 1477 1476 1474 1472 1472 1471 1471 1472 1472 1472 1474 1475 1476 1478 1480 1481 1483 1485 1487 1489 1491 1492 1494 1495 1497 1498 1500 1501 1502 1503 1505 1505 1506 1507 1508 1509
1512 1512 1508 1506 1504 1498 1488 1481 1480 1481 1481 1480 1479 1478 1476 1474 1472 1471 1470 1470 1470 1470 1471 1472 1473 1474 1476 1477 1479 1480 1482 1484 1486 1488 1489 1491 1492 1494 1495 1497 1498 1499 1500 1501 1502 1503 1504 1505 1505
1507 1505 1505 1503 1502 1500 1493 1484 1481 1482 1482 1481 1479 1478 1476 1474 1472 1470 1469 1468 1468 1469 1469 1470 1470 1472 1473 1474 1476 1477 1479 1481 1483 1485 1487 1488 1489 1491 1492 1494 1494 1496 1497 1498 1499 1500 1500 1501 1502